Simultaneous Nadir Overpasses (SNOs) Predictions

Prediction of SNOs between METOP-A and NOAA-19 Satellite Orbit:

Table of predicted SNOs for the next 14.0 days since TLE Epoch: 4/15/2016
Index Date (METOP-A) Time (METOP-A) Lat,Lon (METOP-A) SZA (METOP-A ) Date (NOAA-19) Time (NOAA-19) Lat,Lon (NOAA-19) SZA (NOAA-19 ) Distance(km) Time Diff (sec)
1 04/17/2016 16:45:37 -75.96, 108.40 114.92 04/17/2016 16:44:22 -76.02, 108.22 114.86 8.12 75
2 04/17/2016 17:36:17 75.95, -84.31 65.06 04/17/2016 17:35:18 75.95, -84.26 65.06 1.45 59
3 04/17/2016 18:26:59 -75.94, 83.00 114.96 04/17/2016 18:26:22 -75.92, 83.05 114.98 2.55 37
4 04/17/2016 19:17:39 75.93,-109.71 65.02 04/17/2016 19:17:20 75.94,-109.74 65.03 1.52 19
5 04/17/2016 20:08:21 -75.93, 57.61 115.00 04/17/2016 20:08:24 -75.92, 57.57 115.01 1.39 3
6 04/17/2016 20:59:01 75.91,-135.11 64.98 04/17/2016 20:59:21 75.89,-135.07 64.95 2.63 20
7 04/17/2016 21:49:43 -75.91, 32.21 115.04 04/17/2016 21:50:26 -75.91, 32.08 115.04 3.41 43
8 04/17/2016 22:40:23 75.89,-160.51 64.93 04/17/2016 22:41:23 75.88,-160.56 64.92 1.74 60
9 04/17/2016 23:31:12 -75.57, 5.76 115.41 04/17/2016 23:32:21 -75.59, 7.68 115.39 53.17 69
10 04/28/2016 07:50:52 -76.11,-117.41 118.29 04/28/2016 07:49:39 -76.15,-118.32 118.26 24.61 73
11 04/28/2016 08:41:34 76.01, 49.56 61.60 04/28/2016 08:40:32 76.00, 49.46 61.59 2.66 62
12 04/28/2016 09:32:17 -75.96,-143.28 118.47 04/28/2016 09:31:37 -75.96,-143.17 118.46 3.19 40
13 04/28/2016 10:22:57 75.94, 24.00 61.51 04/28/2016 10:22:33 75.95, 24.13 61.52 3.75 24
14 04/28/2016 11:13:39 -75.94,-168.68 118.51 04/28/2016 11:13:39 -75.96,-168.66 118.49 2.43 0
15 04/28/2016 12:04:19 75.92, -1.40 61.47 04/28/2016 12:04:35 75.95, -1.36 61.50 3.08 16
16 04/28/2016 12:55:01 -75.92, 165.92 118.55 04/28/2016 12:55:40 -75.91, 166.01 118.56 2.83 39
17 04/28/2016 13:45:41 75.91, -26.80 61.43 04/28/2016 13:46:36 75.90, -26.69 61.42 3.02 55
18 04/28/2016 14:36:27 -75.72, 139.91 118.78 04/28/2016 14:37:39 -75.77, 140.99 118.72 30.17 72




NCC Satellite Simultaneous Nadir Overpasses (
